Theta_e
283 284 285 286 289 291 295 296 296 296 298 297 296 296 293 290 291 289 288 287 287 286 286 285 285 285 284 284 283 283 283 284
279 280 279 280 281 283 285 287 289 292 293 292 291 291 288 289 288 287 287 286 286 286 284 283 283 283 283 283 282 283 283 284
279 278 280 281 280 278 279 283 286 286 287 288 287 287 287 287 287 286 286 286 285 285 284 282 281 281 282 281 282 282 282 283
278 277 278 279 279 278 277 282 281 285 285 286 286 286 285 285 285 285 285 284 284 283 282 282 281 281 282 282 282 282 282 281
278 277 277 277 277 278 278 277 278 281 283 283 285 285 285 285 284 284 284 283 283 284 283 283 282 282 282 282 281 281 281 281
273 276 276 275 275 276 277 278 277 278 279 280 282 282 281 282 282 283 283 283 283 282 282 282 282 282 281 281 280 280 280 281
270 273 275 276 276 274 273 275 279 276 276 277 279 279 279 280 280 281 280 280 281 281 281 280 282 284 284 282 281 281 280 280
274 274 275 277 278 276 275 277 278 278 278 278 279 278 277 278 279 278 279 279 279 279 280 280 281 284 285 284 281 281 280 281
276 277 277 277 277 277 278 278 278 277 277 278 278 277 277 277 277 277 278 278 278 278 278 279 279 284 285 284 283 281 281 281
275 277 277 277 277 277 277 277 277 276 276 277 277 276 276 276 276 276 277 277 277 278 277 278 278 283 284 284 282 282 281 282
275 275 275 276 278 277 276 276 275 276 276 276 276 276 276 276 275 276 276 276 277 277 277 278 277 281 282 283 281 280 280 282
274 274 274 276 276 275 275 274 275 275 275 275 275 275 275 275 275 275 275 276 275 275 276 276 277 278 282 283 282 280 280 280
273 273 275 276 276 274 273 274 274 274 273 273 273 275 274 274 274 274 274 274 273 273 273 274 275 276 279 282 283 283 281 280
272 272 272 274 275 272 272 272 272 272 271 271 272 273 273 273 272 272 273 273 272 273 273 274 276 276 280 280 282 283 281 281
270 270 270 271 272 272 272 271 272 271 270 270 270 271 271 272 272 272 271 271 272 273 272 273 274 274 275 277 278 280 278 279
269 270 270 270 270 270 270 270 270 270 270 270 271 271 270 271 271 271 271 272 272 272 273 271 272 273 276 276 274 274 276 270
266 266 267 267 266 267 268 269 270 269 270 270 270 269 270 269 269 274 274 276 276 276 273 273 275 277 278 279 280 279 279 271
263 263 262 262 263 263 265 265 266 268 269 269 269 268 268 268 268 268 270 274 276 277 279 278 276 279 279 280 280 280 280 274
257 257 256 256 259 260 259 263 265 266 267 267 267 267 266 266 266 266 266 265 266 270 273 274 275 276 277 278 279 275 275 272
252 254 255 255 259 257 255 258 259 262 263 262 264 264 264 265 265 264 264 264 264 264 267 266 271 272 274 276 271 271 270 269
Wind_Speed
7 7 5 7 7 8 9 14 13 14 14 13 16 16 12 12 13 12 10 12 13 12 11 10 9 9 8 5 5 6 5 5
7 8 7 6 5 3 3 5 6 9 9 10 7 7 11 12 11 12 12 13 13 13 12 11 10 8 8 7 8 8 8 7
9 8 8 7 6 4 3 5 4 5 6 8 10 12 9 11 12 12 12 11 13 13 12 11 10 9 9 9 8 8 8 8
7 8 7 7 6 5 4 4 4 6 8 9 9 10 12 9 9 11 12 11 11 12 12 12 11 10 8 9 9 8 8 8
7 6 6 6 5 4 5 4 3 5 7 8 8 9 9 13 13 12 11 12 11 11 11 11 10 10 9 8 7 7 6 6
6 6 5 6 6 3 6 5 4 6 6 7 8 10 10 10 9 11 11 10 10 11 9 9 9 7 9 8 8 8 7 7
6 5 5 4 5 5 5 6 7 8 8 7 8 9 9 10 10 10 9 9 9 8 8 9 6 14 15 11 8 8 8 8
7 3 1 3 4 5 5 5 9 9 8 8 9 9 8 8 8 8 8 8 8 7 7 7 6 15 16 16 7 8 8 8
8 2 1 3 5 4 4 6 6 8 7 6 7 8 7 7 7 6 5 6 6 6 6 6 5 13 14 14 8 8 9 9
7 3 2 4 4 5 4 6 6 7 5 4 6 7 6 7 6 5 5 5 5 5 6 7 7 14 14 11 6 7 9 8
6 4 4 3 3 4 4 6 7 5 5 5 5 6 6 6 5 3 4 5 5 6 6 7 6 10 13 12 4 6 5 6
7 6 5 4 4 5 5 6 5 5 5 5 5 6 5 4 4 4 3 5 4 4 4 4 5 5 11 13 6 5 5 5
6 6 6 6 4 5 6 5 5 5 6 5 4 4 4 6 4 5 3 4 4 3 2 2 3 5 7 10 10 8 5 5
5 4 6 6 4 5 3 3 4 5 5 4 3 3 4 5 5 4 4 4 4 4 4 3 3 3 9 8 10 9 3 3
5 5 5 5 5 4 4 3 3 4 4 3 3 3 3 3 3 3 3 3 4 3 3 3 2 2 2 3 4 7 5 5
5 4 5 4 4 3 3 2 3 4 3 3 3 3 3 2 2 2 1 3 4 3 3 4 3 3 6 5 3 3 4 4
6 6 5 4 4 3 3 2 1 2 2 2 3 3 3 2 1 3 5 8 8 8 6 3 5 7 8 8 10 10 11 2
6 6 5 5 5 4 2 0 1 1 1 1 2 3 4 3 3 4 1 0 3 4 8 11 8 10 9 9 9 9 8 4
4 6 5 6 7 6 4 3 3 3 3 2 2 2 2 2 2 2 2 2 1 3 4 2 1 2 4 5 5 1 3 2
4 4 4 4 8 4 3 3 4 2 3 3 2 3 3 3 3 3 3 3 3 1 1 3 3 3 5 8 1 4 4 3
Wind_Direction
340 331 319 308 271 218 207 200 194 191 194 198 186 181 167 158 163 162 152 150 155 156 156 155 156 157 159 159 160 162 173 169
332 334 324 318 318 258 184 153 163 180 177 165 172 173 152 154 153 154 148 152 157 157 153 156 157 158 158 164 164 172 176 176
341 336 340 345 351 6 51 118 138 135 130 147 143 143 153 157 151 149 150 150 152 153 153 156 158 162 165 167 172 177 180 180
341 350 342 340 350 16 53 101 97 127 131 142 148 150 137 128 132 138 140 141 142 147 154 158 162 163 169 170 172 177 182 180
336 347 343 344 339 31 37 46 75 108 131 141 150 145 147 144 143 138 140 139 145 152 155 160 162 164 163 167 172 177 186 188
346 340 353 17 355 13 74 54 51 83 92 110 113 112 115 114 117 121 129 132 138 136 143 148 160 166 166 171 176 179 185 194
333 340 4 33 42 354 43 61 78 70 78 76 86 97 104 110 112 110 112 116 124 137 148 154 165 182 183 172 174 181 188 196
325 305 22 45 54 53 24 50 81 85 74 78 87 83 78 96 106 113 123 128 131 139 150 162 163 190 193 190 181 182 189 191
327 321 67 76 74 70 55 64 73 81 85 87 90 98 97 94 98 103 117 130 140 146 154 156 179 200 203 205 176 193 199 197
327 3 54 79 91 85 70 80 74 73 78 80 104 108 110 115 120 123 136 139 139 148 156 172 189 206 210 208 198 203 204 202
2 26 53 43 96 111 96 90 89 94 92 82 85 104 108 116 120 117 133 142 153 156 172 183 187 209 216 215 196 205 191 192
31 46 37 28 55 70 71 72 78 90 93 88 82 87 102 108 111 104 112 129 132 150 141 164 175 201 211 215 191 202 198 198
27 35 23 18 57 75 72 66 69 77 79 76 85 105 116 119 107 110 150 147 135 143 151 183 180 200 227 226 224 200 191 187
24 30 26 17 35 78 61 80 88 88 87 88 91 99 113 124 125 135 171 164 154 168 168 157 148 173 201 204 225 237 197 173
9 23 30 25 45 74 90 87 94 102 106 119 133 122 111 130 148 157 170 155 155 161 153 147 130 143 111 110 94 110 110 116
360 10 8 9 23 30 68 93 115 123 143 149 141 142 131 123 150 165 221 176 163 179 161 159 174 195 177 161 158 160 160 119
359 356 341 344 332 336 360 7 110 130 156 158 143 143 144 157 138 234 195 197 187 175 177 213 196 181 186 191 195 196 178 118
333 320 322 325 316 304 275 263 163 268 221 161 162 168 167 178 165 166 142 172 208 213 194 189 200 213 218 211 216 224 222 165
294 310 321 318 300 292 286 228 231 200 215 202 183 183 187 183 179 166 167 169 196 18 80 38 33 268 275 277 283 271 262 190
319 306 315 307 292 303 279 238 243 234 230 209 215 205 198 183 185 186 183 195 200 250 328 11 355 313 275 259 230 222 232 230